| time (UTC) | temp F | wind direction | speed MPH | gust MPH | rain 1hr in | rain 24hr in | rain mn in | humidity % | barometer mb |
| 20260510173804 | 58 | 89 | 3.0 | 9.0 | 0.00 | 0.00 | 0.00 | 56 | 1014.0 |
| 20260510173304 | 59 | 76 | 3.0 | 7.0 | 0.00 | 0.00 | 0.00 | 57 | 1014.1 |
| 20260510172804 | 59 | 87 | 3.0 | 9.0 | 0.00 | 0.00 | 0.00 | 57 | 1014.1 |
| 20260510171804 | 59 | 64 | 2.0 | 7.0 | 0.00 | 0.00 | 0.00 | 60 | 1014.2 |
| 20260510171304 | 59 | 54 | 3.0 | 12.0 | 0.00 | 0.00 | 0.00 | 59 | 1014.2 |
| 20260510170804 | 59 | 53 | 5.0 | 10.0 | 0.00 | 0.00 | 0.00 | 58 | 1014.2 |
| 20260510170304 | 59 | 18 | 1.0 | 6.0 | 0.00 | 0.00 | 0.00 | 59 | 1014.3 |
| 20260510165804 | 58 | 57 | 2.0 | 3.0 | 0.00 | 0.00 | 0.00 | 61 | 1014.3 |
| 20260510165306 | 58 | 73 | 3.0 | 6.0 | 0.00 | 0.00 | 0.00 | 60 | 1014.3 |
| 20260510164804 | 58 | 63 | 3.0 | 9.0 | 0.00 | 0.00 | 0.00 | 59 | 1014.4 |
| 20260510164304 | 58 | 73 | 4.0 | 10.0 | 0.00 | 0.00 | 0.00 | 59 | 1014.4 |
| 20260510163804 | 59 | 74 | 4.0 | 10.0 | 0.00 | 0.00 | 0.00 | 60 | 1014.5 |
| 20260510162804 | 59 | 68 | 3.0 | 10.0 | 0.00 | 0.00 | 0.00 | 60 | 1014.7 |
| 20260510162306 | 59 | 47 | 2.0 | 6.0 | 0.00 | 0.00 | 0.00 | 61 | 1014.7 |
| 20260510161804 | 58 | 30 | 1.0 | 7.0 | 0.00 | 0.00 | 0.00 | 61 | 1014.8 |
| 20260510161304 | 58 | 86 | 3.0 | 9.0 | 0.00 | 0.00 | 0.00 | 62 | 1014.9 |
| 20260510160804 | 58 | 87 | 4.0 | 7.0 | 0.00 | 0.00 | 0.00 | 62 | 1015.0 |
| 20260510155804 | 58 | 81 | 3.0 | 10.0 | 0.00 | 0.00 | 0.00 | 62 | 1015.1 |
| 20260510155306 | 58 | 18 | 3.0 | 7.0 | 0.00 | 0.00 | 0.00 | 62 | 1015.1 |
| 20260510154804 | 58 | 65 | 5.0 | 9.0 | 0.00 | 0.00 | 0.00 | 62 | 1015.2 |
| 20260510154304 | 58 | 70 | 3.0 | 10.0 | 0.00 | 0.00 | 0.00 | 64 | 1015.2 |
| 20260510153804 | 58 | 91 | 6.0 | 12.0 | 0.00 | 0.00 | 0.00 | 62 | 1015.3 |
| 20260510152804 | 58 | 39 | 3.0 | 12.0 | 0.00 | 0.00 | 0.00 | 64 | 1015.3 |
| 20260510152307 | 58 | 40 | 3.0 | 8.0 | 0.00 | 0.00 | 0.00 | 64 | 1015.4 |
| 20260510151804 | 58 | 61 | 4.0 | 8.0 | 0.00 | 0.00 | 0.00 | 64 | 1015.4 |
| 20260510151304 | 58 | 72 | 3.0 | 7.0 | 0.00 | 0.00 | 0.00 | 65 | 1015.5 |
| 20260510150804 | 57 | 103 | 2.0 | 9.0 | 0.00 | 0.00 | 0.00 | 67 | 1015.6 |
| 20260510145804 | 57 | 70 | 5.0 | 12.0 | 0.00 | 0.00 | 0.00 | 66 | 1015.7 |
| 20260510145306 | 57 | 63 | 3.0 | 9.0 | 0.00 | 0.00 | 0.00 | 66 | 1015.8 |
| 20260510144804 | 57 | 103 | 3.0 | 12.0 | 0.00 | 0.00 | 0.00 | 66 | 1015.8 |
| 20260510144303 | 57 | 42 | 1.0 | 7.0 | 0.00 | 0.00 | 0.00 | 68 | 1015.8 |
| 20260510143804 | 57 | 58 | 4.0 | 10.0 | 0.00 | 0.00 | 0.00 | 68 | 1015.9 |
| 20260510142804 | 56 | 70 | 5.0 | 12.0 | 0.00 | 0.00 | 0.00 | 68 | 1016.1 |
| 20260510142306 | 56 | 83 | 3.0 | 12.0 | 0.00 | 0.00 | 0.00 | 68 | 1016.1 |
| 20260510141303 | 56 | 106 | 1.0 | 9.0 | 0.00 | 0.00 | 0.00 | 70 | 1016.3 |
| 20260510140804 | 56 | 87 | 4.0 | 9.0 | 0.00 | 0.00 | 0.00 | 70 | 1016.3 |
| 20260510140304 | 56 | 84 | 3.0 | 7.0 | 0.00 | 0.00 | 0.00 | 69 | 1016.4 |
| 20260510135804 | 56 | 70 | 2.0 | 12.0 | 0.00 | 0.00 | 0.00 | 70 | 1016.4 |
| 20260510135306 | 56 | 61 | 3.0 | 10.0 | 0.00 | 0.00 | 0.00 | 70 | 1016.4 |
| 20260510134804 | 56 | 61 | 2.0 | 10.0 | 0.00 | 0.00 | 0.00 | 71 | 1016.4 |
| 20260510133805 | 55 | 45 | 3.0 | 10.0 | 0.00 | 0.00 | 0.00 | 71 | 1016.4 |
| 20260510133304 | 55 | 14 | 2.0 | 10.0 | 0.00 | 0.00 | 0.00 | 71 | 1016.5 |
| 20260510132804 | 55 | 77 | 3.0 | 12.0 | 0.00 | 0.00 | 0.00 | 71 | 1016.5 |
| 20260510132306 | 55 | 86 | 4.0 | 13.0 | 0.00 | 0.00 | 0.00 | 72 | 1016.5 |
| 20260510131804 | 55 | 67 | 5.0 | 12.0 | 0.00 | 0.00 | 0.00 | 72 | 1016.5 |
| 20260510130804 | 56 | 79 | 2.0 | 12.0 | 0.00 | 0.00 | 0.00 | 71 | 1016.5 |
| 20260510130304 | 56 | 16 | 1.0 | 9.0 | 0.00 | 0.00 | 0.00 | 71 | 1016.5 |
| 20260510125804 | 56 | 81 | 3.0 | 10.0 | 0.00 | 0.00 | 0.00 | 71 | 1016.6 |
| 20260510125306 | 56 | 54 | 1.0 | 10.0 | 0.00 | 0.00 | 0.00 | 72 | 1016.7 |
| 20260510124803 | 55 | 88 | 1.0 | 9.0 | 0.00 | 0.00 | 0.00 | 72 | 1016.7 |
| 20260510124304 | 55 | 70 | 5.0 | 13.0 | 0.00 | 0.00 | 0.00 | 72 | 1016.8 |
| 20260510123803 | 55 | 55 | 2.0 | 9.0 | 0.00 | 0.00 | 0.00 | 72 | 1016.9 |
| 20260510123304 | 55 | 17 | 3.0 | 8.0 | 0.00 | 0.00 | 0.00 | 72 | 1016.9 |
| 20260510122804 | 55 | 93 | 5.0 | 14.0 | 0.00 | 0.00 | 0.00 | 72 | 1016.9 |
| 20260510122306 | 55 | 34 | 4.0 | 14.0 | 0.00 | 0.00 | 0.00 | 72 | 1016.9 |
| 20260510121806 | 56 | 67 | 5.0 | 12.0 | 0.00 | 0.00 | 0.00 | 72 | 1016.9 |
| 20260510121304 | 56 | 45 | 3.0 | 10.0 | 0.00 | 0.00 | 0.00 | 72 | 1016.9 |
| 20260510120804 | 56 | 38 | 6.0 | 13.0 | 0.00 | 0.00 | 0.00 | 72 | 1016.9 |
| 20260510114804 | 54 | 64 | 5.0 | 12.0 | 0.00 | 0.00 | 0.00 | 75 | 1017.1 |
| 20260510114304 | 54 | 48 | 4.0 | 14.0 | 0.00 | 0.00 | 0.00 | 75 | 1017.1 |
| 20260510113803 | 54 | 45 | 2.0 | 10.0 | 0.00 | 0.00 | 0.00 | 76 | 1017.2 |
| 20260510113304 | 54 | 32 | 3.0 | 12.0 | 0.00 | 0.00 | 0.00 | 76 | 1017.3 |
| 20260510112804 | 54 | 80 | 5.0 | 13.0 | 0.00 | 0.00 | 0.00 | 75 | 1017.3 |
| 20260510112306 | 54 | 89 | 2.0 | 7.0 | 0.00 | 0.00 | 0.00 | 76 | 1017.3 |
| 20260510111304 | 54 | 72 | 5.0 | 13.0 | 0.00 | 0.00 | 0.00 | 75 | 1017.5 |
| 20260510110805 | 54 | 89 | 6.0 | 13.0 | 0.00 | 0.00 | 0.00 | 75 | 1017.5 |
| 20260510110304 | 54 | 83 | 6.0 | 16.0 | 0.00 | 0.00 | 0.00 | 75 | 1017.5 |
| 20260510105306 | 54 | 95 | 3.0 | 17.0 | 0.00 | 0.00 | 0.00 | 76 | 1017.6 |
| 20260510104304 | 54 | 91 | 7.0 | 15.0 | 0.00 | 0.00 | 0.00 | 76 | 1017.6 |
| 20260510103804 | 54 | 51 | 3.0 | 7.0 | 0.00 | 0.00 | 0.00 | 77 | 1017.6 |
| 20260510103304 | 54 | 37 | 3.0 | 17.0 | 0.00 | 0.00 | 0.00 | 77 | 1017.7 |
| 20260510102804 | 54 | 50 | 3.0 | 12.0 | 0.00 | 0.00 | 0.00 | 77 | 1017.8 |
| 20260510102306 | 54 | 62 | 3.0 | 9.0 | 0.00 | 0.00 | 0.00 | 77 | 1017.8 |
| 20260510101804 | 54 | 52 | 2.0 | 9.0 | 0.00 | 0.00 | 0.00 | 78 | 1017.8 |
| 20260510101303 | 53 | 90 | 3.0 | 12.0 | 0.00 | 0.00 | 0.00 | 78 | 1017.8 |
| 20260510100804 | 53 | 20 | 3.0 | 14.0 | 0.00 | 0.00 | 0.00 | 77 | 1017.8 |
| 20260510100304 | 53 | 103 | 6.0 | 16.0 | 0.00 | 0.00 | 0.00 | 78 | 1017.8 |
| 20260510095305 | 53 | 68 | 5.0 | 13.0 | 0.00 | 0.00 | 0.00 | 78 | 1017.7 |
| 20260510094304 | 53 | 84 | 4.0 | 10.0 | 0.00 | 0.00 | 0.00 | 79 | 1017.8 |
| 20260510093804 | 53 | 99 | 3.0 | 12.0 | 0.00 | 0.00 | 0.00 | 79 | 1017.8 |
| 20260510093304 | 53 | 59 | 4.0 | 15.0 | 0.00 | 0.00 | 0.00 | 79 | 1017.9 |
| 20260510092804 | 53 | 60 | 3.0 | 14.0 | 0.00 | 0.00 | 0.00 | 79 | 1017.9 |
| 20260510092306 | 53 | 78 | 5.0 | 14.0 | 0.00 | 0.00 | 0.00 | 79 | 1017.8 |
| 20260510091805 | 53 | 67 | 4.0 | 12.0 | 0.00 | 0.00 | 0.00 | 79 | 1017.9 |
| 20260510091304 | 53 | 92 | 7.0 | 17.0 | 0.00 | 0.00 | 0.00 | 78 | 1017.9 |
| 20260510090804 | 53 | 95 | 5.0 | 10.0 | 0.00 | 0.00 | 0.00 | 78 | 1018.0 |
| 20260510090304 | 53 | 73 | 3.0 | 10.0 | 0.00 | 0.00 | 0.00 | 79 | 1017.8 |
| 20260510085804 | 53 | 83 | 3.0 | 12.0 | 0.00 | 0.00 | 0.00 | 79 | 1017.9 |
| 20260510085306 | 53 | 73 | 5.0 | 14.0 | 0.00 | 0.00 | 0.00 | 79 | 1018.0 |
| 20260510084804 | 53 | 69 | 3.0 | 12.0 | 0.00 | 0.00 | 0.00 | 79 | 1018.1 |
| 20260510084304 | 53 | 97 | 6.0 | 12.0 | 0.00 | 0.00 | 0.00 | 78 | 1018.1 |
| 20260510083304 | 54 | 82 | 6.0 | 12.0 | 0.00 | 0.00 | 0.00 | 77 | 1018.0 |
| 20260510082804 | 55 | 82 | 5.0 | 14.0 | 0.00 | 0.00 | 0.00 | 78 | 1018.0 |
| 20260510082306 | 55 | 75 | 3.0 | 7.0 | 0.00 | 0.00 | 0.00 | 78 | 1017.9 |
| 20260510081804 | 54 | 67 | 2.0 | 9.0 | 0.00 | 0.00 | 0.00 | 80 | 1017.9 |
| 20260510080804 | 54 | 32 | 3.0 | 12.0 | 0.00 | 0.00 | 0.00 | 79 | 1017.9 |
| 20260510080304 | 54 | 64 | 1.0 | 6.0 | 0.00 | 0.00 | 0.00 | 80 | 1017.9 |
| 20260510075803 | 53 | 38 | 3.0 | 12.0 | 0.00 | 0.00 | 0.00 | 80 | 1017.9 |
| 20260510075306 | 53 | 88 | 3.0 | 12.0 | 0.00 | 0.00 | 0.00 | 80 | 1017.9 |
| 20260510074804 | 53 | 67 | 1.0 | 9.0 | 0.00 | 0.00 | 0.00 | 80 | 1017.9 |
| 20260510074303 | 53 | 37 | 2.0 | 12.0 | 0.00 | 0.00 | 0.00 | 80 | 1017.9 |
| 20260510073804 | 53 | 70 | 2.0 | 10.0 | 0.00 | 0.00 | 0.00 | 81 | 1017.9 |
| 20260510073304 | 53 | 47 | 1.0 | 12.0 | 0.00 | 0.00 | 0.00 | 81 | 1017.9 |
| 20260510072804 | 53 | 80 | 3.0 | 12.0 | 0.00 | 0.00 | 0.00 | 81 | 1017.9 |
| 20260510072305 | 53 | 76 | 3.0 | 10.0 | 0.00 | 0.00 | 0.00 | 81 | 1017.8 |
| 20260510071804 | 52 | 56 | 5.0 | 14.0 | 0.00 | 0.00 | 0.00 | 81 | 1017.8 |
| 20260510071304 | 52 | 77 | 5.0 | 15.0 | 0.00 | 0.00 | 0.00 | 81 | 1017.8 |
| 20260510070804 | 53 | 77 | 2.0 | 9.0 | 0.00 | 0.00 | 0.00 | 81 | 1017.7 |
| 20260510070304 | 53 | 75 | 3.0 | 7.0 | 0.00 | 0.00 | 0.00 | 81 | 1017.7 |
| 20260510065804 | 53 | 83 | 3.0 | 10.0 | 0.00 | 0.00 | 0.00 | 81 | 1017.7 |
| 20260510065306 | 53 | 89 | 2.0 | 7.0 | 0.00 | 0.00 | 0.00 | 82 | 1017.7 |
| 20260510064804 | 52 | 88 | 2.0 | 9.0 | 0.00 | 0.00 | 0.00 | 82 | 1017.7 |
| 20260510064304 | 52 | 89 | 3.0 | 12.0 | 0.00 | 0.00 | 0.00 | 81 | 1017.7 |
| 20260510063303 | 52 | 65 | 2.0 | 12.0 | 0.00 | 0.00 | 0.00 | 82 | 1017.6 |
| 20260510062804 | 52 | 66 | 6.0 | 12.0 | 0.00 | 0.00 | 0.00 | 81 | 1017.6 |
| 20260510062306 | 52 | 82 | 3.0 | 12.0 | 0.00 | 0.00 | 0.00 | 81 | 1017.6 |
| 20260510061304 | 52 | 88 | 5.0 | 12.0 | 0.00 | 0.00 | 0.00 | 82 | 1017.6 |
| 20260510060804 | 52 | 81 | 3.0 | 13.0 | 0.00 | 0.00 | 0.00 | 83 | 1017.5 |
| 20260510060304 | 52 | 88 | 4.0 | 12.0 | 0.00 | 0.00 | 0.00 | 83 | 1017.4 |
| 20260510055804 | 51 | 72 | 3.0 | 12.0 | 0.00 | 0.00 | 0.00 | 84 | 1017.5 |
| 20260510054804 | 51 | 69 | 4.0 | 12.0 | 0.00 | 0.00 | 0.00 | 84 | 1017.4 |
| 20260510053803 | 51 | 76 | 6.0 | 12.0 | 0.00 | 0.00 | 0.00 | 85 | 1017.4 |
| 20260510053304 | 51 | 73 | 6.0 | 13.0 | 0.00 | 0.00 | 0.00 | 85 | 1017.4 |
| 20260510052804 | 50 | 79 | 4.0 | 13.0 | 0.00 | 0.00 | 0.00 | 85 | 1017.5 |
| 20260510052306 | 50 | 81 | 3.0 | 10.0 | 0.00 | 0.00 | 0.00 | 85 | 1017.5 |
| 20260510051804 | 50 | 84 | 6.0 | 10.0 | 0.00 | 0.00 | 0.00 | 85 | 1017.5 |
| 20260510051304 | 50 | 74 | 4.0 | 12.0 | 0.00 | 0.00 | 0.00 | 85 | 1017.5 |
| 20260510050804 | 50 | 72 | 5.0 | 12.0 | 0.00 | 0.00 | 0.00 | 85 | 1017.6 |
| 20260510050304 | 50 | 81 | 3.0 | 9.0 | 0.00 | 0.00 | 0.00 | 85 | 1017.6 |
| 20260510045804 | 50 | 94 | 6.0 | 12.0 | 0.00 | 0.00 | 0.00 | 85 | 1017.6 |
| 20260510045306 | 50 | 88 | 3.0 | 12.0 | 0.00 | 0.00 | 0.00 | 85 | 1017.6 |
| 20260510044804 | 50 | 85 | 5.0 | 13.0 | 0.00 | 0.00 | 0.00 | 84 | 1017.5 |
| 20260510044304 | 50 | 96 | 5.0 | 13.0 | 0.00 | 0.00 | 0.00 | 84 | 1017.4 |
| 20260510043804 | 50 | 90 | 5.0 | 10.0 | 0.00 | 0.00 | 0.00 | 84 | 1017.5 |
| 20260510043304 | 50 | 90 | 5.0 | 10.0 | 0.00 | 0.00 | 0.00 | 84 | 1017.5 |
| 20260510042804 | 50 | 86 | 3.0 | 12.0 | 0.00 | 0.00 | 0.00 | 84 | 1017.6 |
| 20260510042306 | 50 | 76 | 6.0 | 12.0 | 0.00 | 0.00 | 0.00 | 84 | 1017.6 |
| 20260510041804 | 50 | 86 | 4.0 | 12.0 | 0.00 | 0.00 | 0.00 | 84 | 1017.6 |
| 20260510041303 | 50 | 91 | 3.0 | 10.0 | 0.00 | 0.00 | 0.00 | 84 | 1017.6 |
| 20260510040804 | 50 | 91 | 5.0 | 16.0 | 0.00 | 0.00 | 0.00 | 84 | 1017.6 |
| 20260510040304 | 50 | 82 | 2.0 | 9.0 | 0.00 | 0.00 | 0.00 | 83 | 1017.7 |
| 20260510035804 | 50 | 77 | 3.0 | 12.0 | 0.00 | 0.00 | 0.00 | 83 | 1017.7 |
| 20260510035306 | 50 | 54 | 5.0 | 12.0 | 0.00 | 0.00 | 0.00 | 83 | 1017.6 |
| 20260510034804 | 50 | 88 | 3.0 | 9.0 | 0.00 | 0.00 | 0.00 | 83 | 1017.7 |
| 20260510034304 | 50 | 76 | 3.0 | 16.0 | 0.00 | 0.00 | 0.00 | 83 | 1017.7 |
| 20260510033803 | 50 | 84 | 5.0 | 13.0 | 0.00 | 0.00 | 0.00 | 83 | 1017.7 |
| 20260510033304 | 51 | 78 | 3.0 | 10.0 | 0.00 | 0.00 | 0.00 | 83 | 1017.8 |
| 20260510032803 | 51 | 89 | 4.0 | 12.0 | 0.00 | 0.00 | 0.00 | 83 | 1017.8 |
| 20260510032306 | 51 | 81 | 2.0 | 10.0 | 0.00 | 0.00 | 0.00 | 83 | 1017.9 |
| 20260510031804 | 51 | 84 | 4.0 | 10.0 | 0.00 | 0.00 | 0.00 | 83 | 1017.9 |
| 20260510031304 | 51 | 87 | 5.0 | 12.0 | 0.00 | 0.00 | 0.00 | 82 | 1017.9 |
| 20260510030803 | 51 | 88 | 2.0 | 12.0 | 0.00 | 0.00 | 0.00 | 82 | 1017.9 |
| 20260510030304 | 51 | 74 | 3.0 | 13.0 | 0.00 | 0.00 | 0.00 | 82 | 1017.9 |
| 20260510025306 | 51 | 80 | 6.0 | 13.0 | 0.00 | 0.00 | 0.00 | 82 | 1017.9 |
| 20260510024804 | 51 | 81 | 4.0 | 13.0 | 0.00 | 0.00 | 0.00 | 82 | 1017.8 |
| 20260510024303 | 51 | 93 | 4.0 | 10.0 | 0.00 | 0.00 | 0.00 | 82 | 1017.8 |
| 20260510023804 | 51 | 78 | 6.0 | 13.0 | 0.00 | 0.00 | 0.00 | 82 | 1017.8 |
| 20260510023304 | 51 | 79 | 5.0 | 16.0 | 0.00 | 0.00 | 0.00 | 82 | 1017.8 |
| 20260510022804 | 51 | 72 | 6.0 | 15.0 | 0.00 | 0.00 | 0.00 | 82 | 1017.8 |
| 20260510021804 | 51 | 88 | 6.0 | 18.0 | 0.00 | 0.00 | 0.00 | 82 | 1017.9 |
| 20260510020804 | 51 | 74 | 6.0 | 16.0 | 0.00 | 0.00 | 0.00 | 82 | 1017.8 |
| 20260510020304 | 51 | 91 | 5.0 | 15.0 | 0.00 | 0.00 | 0.00 | 82 | 1017.7 |
| 20260510015804 | 52 | 70 | 5.0 | 18.0 | 0.00 | 0.00 | 0.00 | 82 | 1017.7 |
| 20260510015306 | 52 | 62 | 7.0 | 17.0 | 0.00 | 0.00 | 0.00 | 82 | 1017.7 |
| 20260510014804 | 52 | 48 | 6.0 | 20.0 | 0.00 | 0.00 | 0.00 | 82 | 1017.7 |
| 20260510014304 | 52 | 81 | 7.0 | 16.0 | 0.00 | 0.00 | 0.00 | 82 | 1017.6 |
| 20260510013804 | 52 | 96 | 7.0 | 16.0 | 0.00 | 0.00 | 0.00 | 82 | 1017.7 |
| 20260510013304 | 52 | 63 | 5.0 | 14.0 | 0.00 | 0.00 | 0.00 | 82 | 1017.7 |
| 20260510012804 | 52 | 67 | 2.0 | 12.0 | 0.00 | 0.00 | 0.00 | 82 | 1017.7 |
| 20260510012306 | 52 | 79 | 3.0 | 12.0 | 0.00 | 0.00 | 0.00 | 82 | 1017.7 |
| 20260510011804 | 52 | 68 | 4.0 | 13.0 | 0.00 | 0.00 | 0.00 | 82 | 1017.8 |
| 20260510011304 | 52 | 80 | 3.0 | 7.0 | 0.00 | 0.00 | 0.00 | 82 | 1017.8 |
| 20260510010804 | 53 | 73 | 5.0 | 12.0 | 0.00 | 0.00 | 0.00 | 82 | 1017.7 |
| 20260510005306 | 53 | 85 | 7.0 | 18.0 | 0.00 | 0.00 | 0.00 | 82 | 1017.8 |
| 20260510004804 | 53 | 77 | 7.0 | 15.0 | 0.00 | 0.00 | 0.00 | 82 | 1017.8 |
| 20260510004304 | 53 | 84 | 5.0 | 17.0 | 0.00 | 0.00 | 0.00 | 82 | 1017.8 |
| 20260510002804 | 54 | 66 | 5.0 | 16.0 | 0.00 | 0.00 | 0.00 | 82 | 1017.9 |
| 20260510002306 | 54 | 85 | 4.0 | 12.0 | 0.00 | 0.00 | 0.00 | 82 | 1017.8 |
| 20260510001804 | 54 | 81 | 2.0 | 14.0 | 0.00 | 0.00 | 0.00 | 82 | 1017.8 |
| 20260510001303 | 54 | 94 | 5.0 | 13.0 | 0.00 | 0.00 | 0.00 | 81 | 1017.8 |
| 20260510000803 | 54 | 55 | 5.0 | 14.0 | 0.00 | 0.00 | 0.00 | 81 | 1017.9 |
| 20260509235804 | 55 | 46 | 2.0 | 12.0 | 0.00 | 0.00 | 0.00 | 81 | 1017.6 |
| 20260509235306 | 55 | 77 | 2.0 | 12.0 | 0.00 | 0.00 | 0.00 | 80 | 1017.6 |
| 20260509234803 | 55 | 91 | 3.0 | 18.0 | 0.00 | 0.00 | 0.00 | 80 | 1017.5 |
| 20260509234304 | 55 | 47 | 5.0 | 12.0 | 0.00 | 0.00 | 0.00 | 80 | 1017.3 |
| 20260509233804 | 55 | 88 | 4.0 | 13.0 | 0.00 | 0.00 | 0.00 | 80 | 1017.3 |
| 20260509232804 | 55 | 86 | 6.0 | 12.0 | 0.00 | 0.00 | 0.00 | 80 | 1017.4 |
| 20260509231804 | 56 | 67 | 5.0 | 14.0 | 0.00 | 0.00 | 0.00 | 80 | 1017.3 |
| 20260509231303 | 56 | 47 | 7.0 | 15.0 | 0.00 | 0.00 | 0.00 | 79 | 1017.2 |
| 20260509230306 | 56 | 64 | 6.0 | 15.0 | 0.00 | 0.00 | 0.00 | 79 | 1017.2 |
| 20260509225804 | 56 | 65 | 5.0 | 16.0 | 0.00 | 0.00 | 0.00 | 79 | 1017.2 |
| 20260509225306 | 57 | 74 | 4.0 | 13.0 | 0.00 | 0.00 | 0.00 | 79 | 1017.3 |
| 20260509224804 | 57 | 56 | 5.0 | 12.0 | 0.00 | 0.00 | 0.00 | 79 | 1017.2 |
| 20260509224303 | 57 | 62 | 5.0 | 12.0 | 0.00 | 0.00 | 0.00 | 79 | 1017.0 |
| 20260509223803 | 57 | 65 | 6.0 | 12.0 | 0.00 | 0.00 | 0.00 | 79 | 1017.0 |
| 20260509223304 | 57 | 63 | 3.0 | 10.0 | 0.00 | 0.00 | 0.00 | 79 | 1017.1 |
| 20260509222804 | 58 | 52 | 4.0 | 12.0 | 0.00 | 0.00 | 0.00 | 79 | 1017.0 |
| 20260509222306 | 58 | 67 | 3.0 | 13.0 | 0.00 | 0.00 | 0.00 | 79 | 1017.1 |
| 20260509221804 | 58 | 65 | 3.0 | 12.0 | 0.00 | 0.00 | 0.00 | 78 | 1017.1 |
| 20260509220803 | 58 | 53 | 3.0 | 9.0 | 0.00 | 0.00 | 0.00 | 78 | 1017.0 |
| 20260509220304 | 58 | 59 | 3.0 | 9.0 | 0.00 | 0.00 | 0.00 | 78 | 1017.0 |
| 20260509215804 | 58 | 32 | 1.0 | 12.0 | 0.00 | 0.00 | 0.00 | 78 | 1017.0 |
| 20260509215306 | 59 | 79 | 1.0 | 12.0 | 0.00 | 0.00 | 0.00 | 78 | 1017.1 |
| 20260509214803 | 59 | 77 | 4.0 | 10.0 | 0.00 | 0.00 | 0.00 | 78 | 1017.1 |
| 20260509214304 | 59 | 74 | 1.0 | 6.0 | 0.00 | 0.00 | 0.00 | 78 | 1017.1 |
| 20260509213803 | 59 | 53 | 1.0 | 7.0 | 0.00 | 0.00 | 0.00 | 78 | 1017.0 |
| 20260509213303 | 59 | 78 | 2.0 | 12.0 | 0.00 | 0.00 | 0.00 | 78 | 1017.0 |
| 20260509212803 | 59 | 80 | 4.0 | 13.0 | 0.00 | 0.00 | 0.00 | 78 | 1017.0 |
| 20260509212305 | 59 | 47 | 5.0 | 14.0 | 0.00 | 0.00 | 0.00 | 78 | 1017.0 |
| 20260509211803 | 59 | 60 | 3.0 | 12.0 | 0.00 | 0.00 | 0.00 | 78 | 1016.8 |
| 20260509210803 | 59 | 33 | 1.0 | 7.0 | 0.00 | 0.00 | 0.00 | 77 | 1016.7 |
| 20260509210304 | 59 | 90 | 2.0 | 10.0 | 0.00 | 0.00 | 0.00 | 77 | 1016.7 |
| 20260509205804 | 60 | 9 | 1.0 | 9.0 | 0.00 | 0.00 | 0.00 | 77 | 1016.6 |
| 20260509205307 | 60 | 61 | 2.0 | 12.0 | 0.00 | 0.00 | 0.00 | 77 | 1016.6 |
| 20260509204804 | 60 | 66 | 3.0 | 9.0 | 0.00 | 0.00 | 0.00 | 77 | 1016.6 |
| 20260509204304 | 60 | 46 | 1.0 | 9.0 | 0.00 | 0.00 | 0.00 | 77 | 1016.6 |
| 20260509203804 | 60 | 30 | 4.0 | 12.0 | 0.00 | 0.00 | 0.00 | 76 | 1016.5 |
| 20260509203303 | 60 | 25 | 5.0 | 12.0 | 0.00 | 0.00 | 0.00 | 76 | 1016.5 |
| 20260509202804 | 60 | 96 | 2.0 | 9.0 | 0.00 | 0.00 | 0.00 | 76 | 1016.4 |
| 20260509201804 | 61 | 46 | 1.0 | 7.0 | 0.00 | 0.00 | 0.00 | 76 | 1016.4 |
| 20260509201305 | 61 | 41 | 2.0 | 6.0 | 0.00 | 0.00 | 0.00 | 75 | 1016.4 |
| 20260509200805 | 61 | 25 | 2.0 | 13.0 | 0.00 | 0.00 | 0.00 | 75 | 1016.3 |
| 20260509200306 | 61 | 49 | 4.0 | 10.0 | 0.00 | 0.00 | 0.00 | 75 | 1016.2 |
| 20260509195805 | 61 | 87 | 2.0 | 9.0 | 0.00 | 0.00 | 0.00 | 74 | 1016.2 |
| 20260509195306 | 62 | 64 | 3.0 | 9.0 | 0.00 | 0.00 | 0.00 | 74 | 1016.2 |
| 20260509194805 | 62 | 55 | 4.0 | 10.0 | 0.00 | 0.00 | 0.00 | 73 | 1016.1 |
| 20260509194305 | 63 | 67 | 3.0 | 9.0 | 0.00 | 0.00 | 0.00 | 72 | 1016.1 |
| 20260509193305 | 64 | 62 | 2.0 | 6.0 | 0.00 | 0.00 | 0.00 | 66 | 1015.9 |
| 20260509192306 | 64 | 37 | 2.0 | 5.0 | 0.00 | 0.00 | 0.00 | 58 | 1015.7 |
| 20260509191805 | 64 | 74 | 3.0 | 6.0 | 0.00 | 0.00 | 0.00 | 58 | 1015.7 |
| 20260509191306 | 65 | 34 | 2.0 | 5.0 | 0.00 | 0.00 | 0.00 | 57 | 1015.8 |
| 20260509190805 | 65 | 48 | 1.0 | 6.0 | 0.00 | 0.00 | 0.00 | 57 | 1015.8 |
| 20260509185805 | 65 | 84 | 1.0 | 6.0 | 0.00 | 0.00 | 0.00 | 57 | 1015.7 |
| 20260509185306 | 65 | 52 | 1.0 | 5.0 | 0.00 | 0.00 | 0.00 | 57 | 1015.7 |
| 20260509184805 | 65 | 19 | 0.0 | 3.0 | 0.00 | 0.00 | 0.00 | 57 | 1015.6 |
| 20260509184305 | 66 | 72 | 2.0 | 6.0 | 0.00 | 0.00 | 0.00 | 56 | 1015.6 |
| 20260509183805 | 66 | 91 | 2.0 | 10.0 | 0.00 | 0.00 | 0.00 | 56 | 1015.5 |
| 20260509183305 | 66 | 73 | 1.0 | 5.0 | 0.00 | 0.00 | 0.00 | 56 | 1015.6 |
| 20260509182307 | 66 | 81 | 3.0 | 6.0 | 0.00 | 0.00 | 0.00 | 56 | 1015.4 |
| 20260509181806 | 66 | 78 | 2.0 | 5.0 | 0.00 | 0.00 | 0.00 | 56 | 1015.4 |
| 20260509181305 | 67 | 76 | 0.0 | 2.0 | 0.00 | 0.00 | 0.00 | 55 | 1015.4 |
| 20260509180805 | 67 | 61 | 1.0 | 6.0 | 0.00 | 0.00 | 0.00 | 55 | 1015.3 |
| 20260509180305 | 67 | 64 | 2.0 | 6.0 | 0.00 | 0.00 | 0.00 | 54 | 1015.3 |
| 20260509175805 | 67 | 48 | 3.0 | 5.0 | 0.00 | 0.00 | 0.00 | 54 | 1015.3 |
| 20260509175307 | 67 | 46 | 1.0 | 3.0 | 0.00 | 0.00 | 0.00 | 53 | 1015.3 |
| 20260509174805 | 67 | 18 | 1.0 | 6.0 | 0.00 | 0.00 | 0.00 | 53 | 1015.2 |
| 20260509174305 | 67 | 65 | 0.0 | 5.0 | 0.00 | 0.00 | 0.00 | 52 | 1015.2 |